Location: Saint-Restitut
(44.3351°N, 4.7915°E)
Time: 01:17:24
(UTC+00:00)

Cosmos 1954 Rocket - Pass Details

Date: 03 February 2023
Orbit: 751 x 780 km, 74.0° (Epoch: 27 March)

Event Time Altitude Azimuth Distance (km) Brightness Sun altitude
Rises 18:09:41 0° 206° (SSW) 3,231 7.8 -14.0°
Reaches altitude 10° 18:12:05 10° 209° (SSW) 2,304 7.0 -14.5°
Maximum altitude 18:17:17 69° 292° (WNW) 818 4.3 -15.4°
Drops below altitude 10° 18:22:30 10° 16° (NNE) 2,301 6.2 -16.3°
Enters shadow 18:24:50 - 19° (NNE) 3,205 7.0 -16.7°
